[[{"header":{"parameterUnit":"m.s-1","parameterCategory":1,"la1":30.2991,"la2":30.254,"lo1":-89.0895,"lo2":-89.0444,"dy":0.0017,"dx":0.0017,"nx":28,"ny":28,"refTime":"2025-01-27T09:00:00:Z","depth":0,"parameterNumber":2,"parameterNumberName":"U-component_of_WINDS"},"data":[0,0,0,0,0,0,0,0,0,0,0,0,0,0,0,0,0,0,0,0,0,0,0,0,0,0,0,0,0,0,0,0,0,0,0,0,0,0,0,0,0,0,0,0,0,0,0,0,0,0,0,0,0,0,0,0,0,0,-0.3516,-0.3515,0,-0.3459,-0.3458,-0.3457,-0.3394,-0.3393,-0.3392,-0.3391,-0.3332,-0.3331,-0.3331,0,0,0,0,0,0,0,0,0,0,0,0,0,-0.3572,-0.3571,-0.3516,-0.3515,-0.3515,-0.3459,-0.3458,-0.3457,-0.3394,-0.3393,-0.3392,-0.3391,-0.3332,-0.3332,-0.3331,0,0,0,0,0,0,0,0,0,0,0,0,0,-0.3534,-0.3571,-0.3516,-0.3476,-0.3472,-0.3459,-0.3458,-0.3457,-0.3394,-0.3393,-0.3391,-0.339,-0.3333,-0.3332,-0.3331,-0.3352,0,0,-0.3327,-0.3327,0,0,0,0,0,0,0,0,-0.3537,-0.3532,-0.3483,-0.3479,-0.3474,-0.3432,-0.3456,-0.3422,-0.3395,-0.3424,-0.3391,-0.339,-0.3367,-0.3363,-0.3355,-0.3349,-0.3347,-0.3327,-0.3327,-0.3326,-0.3326,0,0,0,0,0,0,0,-0.3539,-0.3534,-0.3493,-0.3482,-0.3477,-0.3462,-0.3455,-0.3449,-0.3404,-0.3421,-0.3416,-0.3411,-0.3364,-0.3356,-0.3353,-0.3346,-0.3327,-0.3326,-0.3326,-0.3325,-0.3356,-0.3358,0,0,0,0,0,0,-0.3548,-0.3537,-0.3495,-0.3492,-0.3503,-0.3462,-0.3454,-0.3447,-0.3404,-0.3396,-0.3412,-0.3408,-0.3359,-0.3354,-0.3351,-0.3374,-0.3326,-0.3325,-0.3325,-0.3355,-0.3357,-0.3358,0,0,0,0,0,0,-0.3549,-0.3545,-0.3497,-0.3513,-0.3506,-0.3462,-0.3455,-0.3447,-0.3439,-0.3396,-0.3388,-0.3412,-0.3357,-0.3352,-0.3352,-0.3371,-0.3325,-0.3324,-0.3353,-0.3355,-0.3357,-0.342,0,0,0,0,0,0,-0.3551,-0.3546,-0.3553,-0.3514,-0.3505,-0.35,-0.3456,-0.3447,-0.3437,-0.3431,-0.3394,-0.3387,-0.3356,-0.3354,-0.3351,-0.3369,-0.3323,-0.3351,-0.3354,-0.3357,-0.3416,-0.3424,-0.3431,0,0,0,0,0,-0.3553,-0.3572,-0.3554,-0.3549,-0.3514,-0.3501,-0.3496,-0.346,-0.3439,-0.3446,-0.3419,-0.3388,-0.3369,-0.3355,-0.3351,-0.3368,-0.335,-0.3353,-0.3357,-0.3413,-0.3422,-0.3431,0,0,0,0,0,0,-0.3614,-0.3566,-0.3545,-0.3552,-0.3531,-0.3491,-0.3498,-0.3471,-0.3456,-0.3451,-0.3407,-0.3399,-0.3405,-0.3386,-0.3371,-0.3387,-0.3355,-0.3358,-0.3399,-0.3408,-0.3415,-0.342,-0.3322,0,0,0,0,0,-0.3629,-0.3622,-0.3581,-0.3591,-0.3582,-0.3542,-0.3536,-0.351,-0.3486,-0.3477,-0.345,-0.3429,-0.3418,-0.3412,-0.34,-0.3413,-0.3405,-0.3423,-0.343,-0.3437,-0.344,-0.3447,-0.3455,-0.3369,-0.3369,-0.3369,0,0,-0.3658,-0.3631,-0.363,-0.3603,-0.3584,-0.3579,-0.3535,-0.3532,-0.3528,-0.3476,-0.3475,-0.3455,-0.3429,-0.3436,-0.3438,-0.3421,-0.3462,-0.3441,-0.3446,-0.3446,-0.3451,-0.3459,-0.3467,-0.3371,-0.3371,-0.337,0,0,-0.3709,-0.3688,-0.3694,-0.3677,-0.3649,-0.3622,-0.3624,-0.3588,-0.3573,-0.3571,-0.3533,-0.3528,-0.351,-0.3493,-0.3482,-0.3529,-0.3501,-0.3527,-0.3565,-0.3573,-0.358,-0.3585,-0.3603,-0.361,-0.353,-0.353,-0.353,0,-0.3749,-0.374,-0.3701,-0.3701,-0.369,-0.3644,-0.3651,-0.3636,-0.3605,-0.36,-0.3581,-0.3559,-0.3537,-0.3541,-0.3553,-0.3545,-0.3547,-0.3531,-0.3582,-0.3587,-0.3592,-0.3609,-0.3615,-0.3533,-0.3533,-0.3532,-0.3532,0,-0.3791,-0.3786,-0.3795,-0.3767,-0.3758,-0.3761,-0.3723,-0.3719,-0.3694,-0.367,-0.367,-0.3643,-0.3625,-0.3624,-0.36,-0.3625,-0.3615,-0.359,-0.3557,-0.3604,-0.3619,-0.3625,-0.3538,-0.3537,-0.3536,-0.3535,0,0,-0.3878,-0.3831,-0.3835,-0.3822,-0.3789,-0.3784,-0.3786,-0.3769,-0.3766,-0.3747,-0.3748,-0.3735,-0.3712,-0.3699,-0.3673,-0.3679,-0.372,-0.3653,-0.3652,-0.3667,-0.3748,-0.3768,-0.3776,-0.3701,-0.3702,-0.3703,-0.3751,0,-0.3924,-0.3924,-0.389,-0.39,-0.3896,-0.3853,-0.3854,-0.3834,-0.3812,-0.3806,-0.3781,-0.3773,-0.3742,-0.3735,-0.374,-0.3714,-0.3736,-0.371,-0.3702,-0.3702,-0.3711,-0.3783,-0.3804,-0.385,-0.3756,-0.3757,-0.3758,0,-0.3978,-0.3963,-0.3972,-0.394,-0.3937,-0.3939,-0.3921,-0.3915,-0.3892,-0.3876,-0.3863,-0.3833,-0.3833,-0.3802,-0.3803,-0.3786,-0.3781,-0.3768,-0.3769,-0.3767,-0.3733,-0.3785,-0.3864,-0.3872,-0.3766,-0.3765,-0.3765,0,-0.4042,-0.4024,-0.4028,-0.4018,-0.398,-0.3983,-0.3967,-0.3943,-0.3935,-0.392,-0.3915,-0.39,-0.3893,-0.3882,-0.3849,-0.3829,-0.3854,-0.382,-0.3841,-0.3842,-0.3849,-0.3849,-0.393,-0.3844,-0.3844,-0.3844,-0.3844,0,-0.4097,-0.4105,-0.4056,-0.4059,-0.4067,-0.4028,-0.4037,-0.4017,-0.3996,-0.3994,-0.3956,-0.3955,-0.3912,-0.3907,-0.3881,-0.3886,-0.3882,-0.387,-0.3863,-0.3874,-0.3876,-0.387,-0.3867,-0.3846,-0.3846,-0.3845,-0.3845,0,-0.417,-0.4137,-0.4139,-0.4103,-0.4095,-0.4102,-0.4072,-0.4073,-0.4049,-0.4048,-0.4046,-0.4008,-0.4,-0.3967,-0.395,-0.3933,-0.3948,-0.3933,-0.3956,-0.3951,-0.3975,-0.3974,-0.4056,-0.4065,-0.3974,-0.3974,-0.3975,0,-0.4208,-0.4213,-0.4178,-0.4175,-0.4161,-0.4155,-0.4148,-0.411,-0.4104,-0.4079,-0.4084,-0.4073,-0.4062,-0.4052,-0.4024,-0.4012,-0.3998,-0.4027,-0.3996,-0.4007,-0.4,-0.4,-0.4001,-0.4034,-0.4036,-0.4036,-0.4037,0,-0.4278,-0.4263,-0.4253,-0.4239,-0.4232,-0.4218,-0.4203,-0.4202,-0.416,-0.4156,-0.4148,-0.4139,-0.4124,-0.4114,-0.4097,-0.4081,-0.4053,-0.4048,-0.4052,-0.4063,-0.4076,-0.4071,-0.3975,-0.4046,-0.4045,-0.4044,-0.4044,-0.4044,-0.4335,-0.4339,-0.4315,-0.4307,-0.4292,-0.4279,-0.4278,-0.4255,-0.4248,-0.4232,-0.421,-0.4205,-0.4184,-0.4159,-0.4145,-0.4142,-0.4125,-0.4132,-0.4133,-0.4136,-0.4142,-0.4077,-0.4138,-0.4138,-0.4138,-0.4137,-0.4137,0,-0.4405,-0.4388,-0.4381,-0.4361,-0.4355,-0.4329,-0.4311,-0.4308,-0.4304,-0.4286,-0.4277,-0.4268,-0.4259,-0.4231,-0.4219,-0.4221,-0.4208,-0.4219,-0.4219,-0.4216,-0.4156,-0.4154,-0.423,-0.423,-0.423,-0.423,-0.423,-0.423,-0.4441,-0.4446,-0.4427,-0.4425,-0.4407,-0.4402,-0.4395,-0.4383,-0.4369,-0.4361,-0.4353,-0.4335,-0.4313,-0.43,-0.4291,-0.4283,-0.4281,-0.4297,-0.4285,-0.4229,-0.422,-0.4212,-0.421,-0.4296,-0.4297,-0.4345,-0.4346,-0.4346]},{"header":{"parameterUnit":"m.s-1","parameterCategory":1,"la1":30.2991,"la2":30.254,"lo1":-89.0895,"lo2":-89.0444,"dy":0.0017,"dx":0.0017,"nx":28,"ny":28,"refTime":"2025-01-27T09:00:00:Z","depth":0,"parameterNumber":3,"parameterNumberName":"V-component_of_WINDS"},"data":[0,0,0,0,0,0,0,0,0,0,0,0,0,0,0,0,0,0,0,0,0,0,0,0,0,0,0,0,0,0,0,0,0,0,0,0,0,0,0,0,0,0,0,0,0,0,0,0,0,0,0,0,0,0,0,0,0,0,2.2088,2.2088,0,2.2102,2.2102,2.2103,2.2155,2.2156,2.2158,2.2159,2.2169,2.2169,2.2168,0,0,0,0,0,0,0,0,0,0,0,0,0,2.2102,2.2102,2.2088,2.2088,2.2088,2.2102,2.2102,2.2103,2.2155,2.2157,2.2158,2.2159,2.217,2.2169,2.2168,0,0,0,0,0,0,0,0,0,0,0,0,0,2.2104,2.2102,2.2088,2.2116,2.2119,2.2102,2.2102,2.2103,2.2155,2.2157,2.2158,2.216,2.217,2.2169,2.2168,2.2123,0,0,2.2164,2.2163,0,0,0,0,0,0,0,0,2.2104,2.2103,2.2112,2.2114,2.2117,2.2129,2.2112,2.2109,2.2154,2.2141,2.2159,2.2161,2.2154,2.2154,2.2153,2.2124,2.2124,2.2164,2.2163,2.2162,2.2162,0,0,0,0,0,0,0,2.2104,2.2103,2.2093,2.2112,2.2115,2.2127,2.2129,2.2111,2.2137,2.2142,2.2146,2.2147,2.2156,2.2154,2.2154,2.2125,2.2164,2.2163,2.2162,2.2161,2.206,2.2058,0,0,0,0,0,0,2.21,2.2103,2.2093,2.2094,2.2115,2.2125,2.2128,2.2123,2.2137,2.2141,2.2146,2.215,2.2155,2.2155,2.2154,2.2103,2.2162,2.2161,2.216,2.2062,2.206,2.2058,0,0,0,0,0,0,2.21,2.2099,2.2092,2.2099,2.21,2.2123,2.2117,2.2123,2.2121,2.214,2.2145,2.2139,2.2157,2.2156,2.2131,2.2104,2.2161,2.2159,2.2064,2.2061,2.2059,2.2001,0,0,0,0,0,0,2.21,2.2098,2.2083,2.2099,2.2099,2.207,2.2116,2.2122,2.2119,2.2124,2.2135,2.2139,2.2158,2.2133,2.213,2.2104,2.2158,2.2067,2.2063,2.2059,2.2005,2.1996,2.1989,0,0,0,0,0,2.2101,2.2065,2.2082,2.208,2.208,2.2068,2.2068,2.2092,2.2117,2.21,2.2113,2.2138,2.2108,2.213,2.2127,2.21,2.2068,2.2064,2.206,2.2009,2.1998,2.1989,0,0,0,0,0,0,2.2043,2.2068,2.2086,2.2055,2.2059,2.2077,2.2057,2.208,2.2077,2.2081,2.211,2.2112,2.2083,2.2089,2.2113,2.2058,2.2093,2.2087,2.2055,2.2045,2.2037,2.2035,2.2157,0,0,0,0,0,2.2028,2.2017,2.2038,2.2008,2.201,2.2033,2.2029,2.2047,2.2052,2.2054,2.2065,2.2068,2.2059,2.2052,2.2045,2.2007,2.201,2.1987,2.1979,2.1972,2.1967,2.1946,2.1936,2.2043,2.2043,2.2043,0,0,2.1994,2.2006,2.1997,2.1997,2.2003,2.199,2.2034,2.2019,2.201,2.2051,2.2029,2.2037,2.2042,2.201,2.1996,2.2014,2.1938,2.1966,2.1961,2.1959,2.1941,2.1931,2.1922,2.204,2.2041,2.2041,0,0,2.1926,2.1934,2.191,2.1915,2.1924,2.194,2.1934,2.1949,2.1956,2.1934,2.1965,2.1954,2.1938,2.1941,2.194,2.1874,2.1897,2.187,2.1827,2.1807,2.1798,2.1791,2.1766,2.1757,2.1865,2.1865,2.1865,0,2.1882,2.1866,2.1895,2.1878,2.1877,2.1916,2.1891,2.1894,2.1899,2.1897,2.1917,2.1899,2.1905,2.1874,2.1858,2.1856,2.1849,2.1869,2.1797,2.179,2.1784,2.1761,2.1752,2.1862,2.1862,2.1863,2.1863,0,2.1812,2.18,2.1779,2.1785,2.1782,2.1761,2.1785,2.1778,2.1797,2.1811,2.1787,2.1797,2.1792,2.1786,2.1804,2.1758,2.1768,2.1793,2.1828,2.177,2.1749,2.174,2.1857,2.1859,2.1859,2.186,0,0,2.1707,2.173,2.1721,2.1724,2.1737,2.1728,2.1708,2.1706,2.1699,2.1701,2.1685,2.1671,2.1694,2.1693,2.1711,2.1694,2.164,2.172,2.1721,2.1704,2.1589,2.157,2.1559,2.1656,2.1655,2.1653,2.1588,0,2.1641,2.1611,2.1637,2.1601,2.159,2.1627,2.161,2.1616,2.1628,2.1619,2.1633,2.1622,2.1654,2.1653,2.1638,2.165,2.1617,2.1655,2.164,2.1639,2.1636,2.1548,2.1528,2.1465,2.158,2.1579,2.1578,0,2.1561,2.1561,2.1525,2.154,2.1536,2.1521,2.152,2.1512,2.1519,2.1529,2.1528,2.1552,2.1533,2.1569,2.1542,2.1568,2.1563,2.1568,2.1567,2.1565,2.1604,2.1543,2.1446,2.1436,2.1565,2.1566,2.1567,0,2.1487,2.1478,2.1455,2.1457,2.1474,2.1462,2.1469,2.1478,2.1474,2.1474,2.1471,2.1468,2.1466,2.1462,2.1483,2.1507,2.1454,2.1492,2.1461,2.146,2.1447,2.1447,2.1347,2.1445,2.1446,2.1446,2.1446,0,2.1411,2.1387,2.1422,2.1408,2.1382,2.1412,2.1384,2.1395,2.1402,2.139,2.1422,2.1409,2.1439,2.1429,2.1446,2.1421,2.142,2.1427,2.1431,2.1423,2.1422,2.142,2.1424,2.1443,2.1444,2.1444,2.1445,0,2.1323,2.1346,2.1324,2.1343,2.1347,2.1327,2.1342,2.1329,2.1345,2.1328,2.1326,2.1349,2.1339,2.1361,2.1353,2.1365,2.133,2.1341,2.1327,2.1331,2.1298,2.1301,2.1192,2.1179,2.1287,2.1286,2.1285,0,2.1272,2.1255,2.1273,2.1267,2.1272,2.1263,2.1261,2.1289,2.1284,2.1291,2.1277,2.127,2.1266,2.1249,2.1264,2.1258,2.1269,2.1232,2.1269,2.1261,2.1268,2.1268,2.1266,2.1224,2.1222,2.1221,2.122,0,2.1179,2.1192,2.1187,2.1187,2.1183,2.1183,2.1186,2.1179,2.121,2.1203,2.1194,2.1191,2.1185,2.1177,2.1175,2.1181,2.1205,2.1209,2.1201,2.1192,2.1185,2.1188,2.1306,2.1211,2.1212,2.1213,2.1213,2.1213,2.1108,2.1094,2.1105,2.1099,2.1104,2.1106,2.1095,2.1109,2.1102,2.11,2.1117,2.1104,2.1112,2.1112,2.1115,2.1105,2.1122,2.1111,2.1108,2.1105,2.1099,2.1188,2.1105,2.1105,2.1105,2.1106,2.1106,0,2.1016,2.1025,2.1019,2.1023,2.1017,2.1043,2.1047,2.1041,2.103,2.1035,2.1031,2.102,2.1013,2.1029,2.1024,2.1013,2.1023,2.101,2.1011,2.1011,2.1085,2.1091,2.1001,2.1001,2.1001,2.1001,2.1001,2.1002,2.0968,2.0946,2.0959,2.094,2.0949,2.0938,2.0938,2.094,2.0944,2.0932,2.0927,2.0937,2.0946,2.0942,2.0937,2.0941,2.0938,2.092,2.0928,2.0996,2.1006,2.1016,2.1022,2.0919,2.0919,2.0856,2.0855,2.0855]}]]